Location: St. Louis
(38.6270°N, 90.1994°W)
Time: 10:16:24
(UTC-06:00)

Vanguard 2 Rocket - Pass Details

Date: 03 December 2021
Orbit: 553 x 3325 km, 32.9° (Epoch: 23 January)

Event Time Altitude Azimuth Distance (km) Brightness Sun altitude
Rises 21:07:13 0° 270° (W) 4,089 10.8 -51.5°
Reaches altitude 10° 21:09:33 10° 266° (W) 3,393 10.2 -51.9°
Enters shadow 21:12:28 26° 258° (WSW) 2,659 9.4 -52.5°
Maximum altitude 21:18:24 60° 189° (S) 2,183 - -53.6°
Drops below altitude 10° 21:33:58 10° 115° (ESE) 5,694 - -56.5°
Sets 21:39:11 0° 113° (ESE) 6,997 - -57.5°
